www.pogodaiklimat.ru

Погода и климат >> Архив погоды >> Канада >> Нунавут >> Талойоак


ПОГОДА в Талойоаке

  • Прогноз погоды в Талойоаке
  • Монитор погоды в Талойоаке

АРХИВ ПОГОДЫ в Талойоаке

Время (UTC), дата Ветер
(напр.,м/с)
 
Видим.   Явления Облачность Т
(С)
Тd
(С)
f
(%)
Тe
(С)
Тes
(С)
Комфортность P
(гПа)
Po
(гПа)
Тmin
(С)
Tmax
(С)
R
(мм)
R24
(мм)
S
(см)
03 20.05 ЮВ 2 24 км 9/9 300 м
[]
-7.2 -10.2 79 -11 -11 1028.5 1024.8
06 20.05 Ю 3 24 км 9/9 300 м
[Sc]
-7.5 -10.0 82 -13 -13 1027.8 1024.1 -10.8 -6.7 22
09 20.05 Ю 1 24 км 9/9 200 м
[]
-7.8 -10.3 82 -10 -10 1026.9 1023.2
12 20.05 В 5 24 км 9/9 200 м
[Sc]
-8.0 -10.3 83 -15 -15 1025.8 1022.1 -8.1 -6.7 22
15 20.05 В 4 24 км 10/10 100 м
[]
-8.1 -10.3 84 -15 -15 1025.0 1021.3
18 20.05 В 4 24 км слаб. снег 10/10 200 м
[Sc]
-6.9 -10.4 76 -13 -13 1024.6 1020.9 -8.5 -6.8 0.0 22
21 20.05 В 3 24 км 9/9 200 м
[]
-6.3 -10.2 74 -12 -11 1023.6 1019.9
00 21.05 В 5 24 км слаб. снег 9/9 200 м
[Sc]
-6.8 -10.1 77 -14 -14 1023.5 1019.8 -8.5 -6.1 0.0 22
03 21.05 В 4 24 км 9/9 200 м
[]
-7.6 -11.0 77 -14 -14 1023.3 1019.6
15 21.05 С 3 24 км 9/9 200 м
[]
-9.4 -13.1 74 -15 -15 1024.0 1020.3
18 21.05 С 3 19 км слаб. снег 10/10 300 м
[Sc]
-7.9 -12.6 69 -14 -14 1024.0 1020.3 0.2 22
21 21.05 СЗ 2 24 км 10/10 300 м
[]
-7.5 -11.8 71 -12 -12 1025.0 1021.3
00 22.05 СВ 2 24 км слаб. снег 9/9 300 м
[Sc]
-6.4 -10.7 71 -10 -9 1025.7 1022.0 0.0 22
15 22.05 С 5 24 км 9/9 300 м
[]
-5.6 -9.5 74 -12 -12 1028.3 1024.6
18 22.05 С 4 24 км {снег} 6/6 600 м
[Frnb]
-3.5 -8.3 69 -9 -6 1027.1 1023.4 0.0 21
21 22.05 С 6 24 км 9/9 300 м
[]
-1.7 -4.8 79 -8 -8 1026.3 1022.6
00 23.05 С 5 24 км 9/9 300 м
[Sc]
-1.3 -4.2 81 -8 -8 1025.2 1021.5 21
03 23.05 С 6 24 км 9/9 300 м
[]
-1.7 -3.6 87 -9 -9 1024.1 1020.4
21 23.05 С 9 24 км 6/6 1000 м
[]
-1.1 -5.7 71 -9 -9 1019.3 1015.7
00 24.05 С 6 24 км 5/1 600 м
[Sc Cs]
-1.6 -5.5 75 -9 -8 1018.7 1015.1 21
03 24.05 С 4 24 км 5/5 600 м
[]
-3.5 -6.4 80 -9 -9 1018.0 1014.4
06 24.05 С 5 24 км 6/0 200 м
[Sc Ac As Ci fib]
-6.4 -9.8 77 -13 -13 1017.0 1013.4 101
15 24.05 СЗ 5 24 км 8/8 600 м
[]
-3.3 -7.4 73 -10 -9 1016.5 1012.9
18 24.05 С 3 24 км 8/3 1000 м
[Sc Ac As Ci]
-1.8 -6.6 70 -7 -3 1016.3 1012.7 20
21 24.05 СЗ 2 24 км 9/9 1000 м
[]
-0.5 -4.7 73 -4 -3 1016.0 1012.4
00 25.05 Ю 2 24 км {снег} 9/5 1000 м
[Sc Ac As]
-0.6 -3.2 83 -4 -4 1015.1 1011.5 0.0 19
03 25.05 СЗ 5 24 км 8/8 1500 м
[]
-3.5 -6.0 83 -10 -10 1014.0 1010.4
06 25.05 СЗ 5 24 км 10/0 2000 м
[Ac As]
-4.6 -7.0 83 -12 -12 1012.8 1009.2
09 25.05 С 1 22 км 10/10 600 м
[]
-6.2 -8.1 86 -7 -7 1012.9 1009.3
12 25.05 З 1 16 км слаб. снег 9/9 600 м
[Sc]
-6.2 -8.1 86 -9 -8 1012.5 1008.9 -6.8
15 25.05 СЗ 2 24 км 9/9 300 м
[]
-3.4 -5.5 85 -8 -7 1012.3 1008.7
18 25.05 Ю 3 24 км {снег} 8/8 100 м
[Sc]
-2.0 -4.5 83 -7 -5 1011.9 1008.3 -6.8 -2.0 0.0 19
21 25.05 ЮЗ 5 16 км 8/8 200 м
[]
-1.8 -4.9 79 -8 -7 1011.6 1008.0
00 26.05 Ю 5 16 км слаб. снег 9/9 100 м
[Sc]
-4.2 -6.4 85 -11 -11 1011.0 1007.4 -6.8 -1.0 0.0 19
03 26.05 ЮЗ 5 16 км 9/9 100 м
[]
-6.6 -8.1 89 -14 -14 1010.5 1006.9
06 26.05 ЮЗ 5 12 км в посл. час снег 10/10 50 м
[Sc]
-7.4 -8.8 90 -15 -15 1010.1 1006.5 -7.5 -1.0 19
09 26.05 Ю 4 6000 м 8/8 50 м
[]
-7.8 -9.2 90 -15 -15 1009.6 1006.0
12 26.05 6000 м слаб. снег н/о -8.3 -9.8 89 -15 -15 1008.8 1005.2 -8.6 -1.0 19
15 26.05 ЮВ 4 6000 м 10/10 100 м
[]
-6.5 -7.9 90 -13 -13 1007.0 1003.4

 

Местоположение метеостанции Талойоак (Нунавут, Канада): широта 69.55 долгота -93.58 высота над уровнем моря 28 м.

В архиве по умолчанию представлена погода в Талойоаке за последнюю неделю. Архивные данные за месяц целиком и за предыдущие месяцы, начиная с января 2011 года, Вы можете получить, выбрав интересующий диапазон дат из раскрывающегося списка и нажав кнопку "Ввод!".


*Определитесь, кто Вы:
робот инопланетянин человек

Внимание! Время в таблицах - всемирное. Для получения местного времени необходимо прибавить поправку, которая равна -6 ч.

Смотрите также архив погоды в соседних городах и на ближайших метеорологических станциях:

Погода в Шеперд-Бее (Нунавут, Канада) (81 км)
Погода в Джойа Хейвен (Нунавут, Канада) (136 км)
Погода в Кугааруке (Нунавут, Канада) (188 км)
Погода в Кам Фор (Нунавут, Канада) (198 км)
Погода на Острове Хат (Нунавут, Канада) (291 км)
Погода в Глеичене (Альберта, Канада) (405 км)
Погода в Вейджер Бэй (Нунавут, Канада) (444 км)
Погода в Кеймбридж-Бее (Нунавут, Канада) (454 км)
Погода в Кембридж Бэй (Нунавут, Канада) (454 км)
Погода в Арктик Бей (Нунавут, Канада) (490 км)

Пояснения к столбцам:

Ветер - указаны скорость ветра в м/с - средняя за 10 мин, порывы в срок и между сроками (в фигурных скобках) и направление, откуда дует ветер: С - северный, СВ - северо-восточный, В - восточный, ЮВ - юго-восточный, Ю - южный, ЮЗ - юго-западный, З - западный, СЗ - северо-западный.
Видимость - горизонтальная дальность видимости в метрах или километрах. При видимости от 1 до 10 км при отсутствии осадков обычно наблюдается дымка, при ухудшении видимости до 1 км и менее - туман. В сухую погоду видимость может ухудшаться дымом, пылью или мглою.
Явления - указаны атмосферные явления, наблюдавшиеся в срок или в последний час перед сроком; фигурными скобками обозначены явления, наблюдавшиеся между сроками (за 1-3 часа до срока); квадратными скобками обозначены град или гололедные отложения с указанием их диаметра в мм.
Облачность - указаны через наклонную черту общая и нижняя облачность в баллах и высота нижней границы облаков в метрах; квадратными скобками обозначены формы облаков: Ci - перистые, Cs - перисто-слоистые, Cc - перисто-кучевые, Ac - высококучевые, As - высокослоистые, Sc - слоисто-кучевые, Ns - слоисто-дождевые, Cu - кучевые, Cb - кучево-дождевые. Подробнее классификацию облаков см. в Атласе облаков (PDF).
T - Температура воздуха - температура, измеренная на высоте 2 м над землей.
Td - Температура точки росы - температура, при понижении до которой содержащийся в воздухе водяной пар достигнет насыщения.
f - Относительная влажность воздуха - влажноcть воздуха, измеренная на высоте 2 м над землей.
Te - Эффективная температура - температура, которую ощущает одетый по сезону человек в тени. Характеристика душности погоды. При расчете учитывается влияние влажности воздуха и скорости ветра на теплоощущения человека.
Tes - Эффективная температура на солнце - температура, которую ощущает человек, с поправкой на солнечный нагрев. Характеристика знойности погоды. Зависит от высоты солнца над горизонтом, облачности и скорости ветра. Ночью, в пасмурную погоду, а также при ветре 12 м/с и более поправка равна нулю.
P - Атмосферное давление - приведенное к уровню моря атмосферное давление.
Po - Атмосферное давление - измеренное на уровне метеостанции атмосферное давление.
Tmin - Минимальная температура - минимум температуры воздуха на высоте 2 м над землей.
Tmax - Максимальная температура - максимум температуры воздуха на высоте 2 м над землей.
R - Количество осадков - Количество выпавших осадков за период времени, мм. При наведении курсора мыши на число - период времени, за который выпало указанное количество осадков.
R24 - Количество осадков - Количество выпавших осадков за 24 часа, мм.
S - Снежный покров - Высота снежного покрова, см. При наведении курсора мыши на число - состояние снежного покрова и степень покрытия местности в баллах.